Burlington, WI

6:12 PM CST on November 20, 2019 (GMT -0600)
Burlington

Weather History for KBUU - October, 2019

Change the Weather History Date:

Monday, October 21, 2019

  Actual Average (WUND) Record (WUND)
Temperature  
Mean Temperature 53 °F -  
Max Temperature 63 °F - - (-1)
Min Temperature 43 °F - - (-1)
Degree Days  
Heating Degree Days 12    
Growing Degree Days 3 (Base 50)    
Moisture  
Dew Point 47 °F    
Average Humidity 84    
Maximum Humidity 100    
Minimum Humidity 54    
Precipitation  
Precipitation 0.36 in - - ()
Sea Level Pressure  
Sea Level Pressure 29.55 in    
Wind  
Wind Speed 11 mph (SSE)    
Max Wind Speed 31 mph    
Max Gust Speed 45 mph    
Visibility 8 miles    
Events Rain    
Averages and records for this station are not official NWS values.
T = Trace of Precipitation, MM = Missing Value Source: NWS Daily Summary

Daily Weather History Graph

Daily Weather History Graph

Search for Another Location

Airport or City:

Astronomy

Oct. 21, 2019 Rise Set
Actual Time 7:13 AM CDT 6:01 PM CDT
Civil Twilight 6:44 AM CDT 6:30 PM CDT
Nautical Twilight 6:11 AM CDT 7:03 PM CDT
Astronomical Twilight 5:38 AM CDT 7:35 PM CDT
Moon No Moon Rise 2:35 PM CDT
Length of Visible Light 11h 45m
Length of Day
10h 48m
Waning Gibbous, 48% of the Moon is Illuminated
Oct 21
Waning Gibbous
Oct 27
New
Nov 4
First Quarter
Nov 12
Full
Nov 19
Last Quarter

Hourly Weather History & Observations

Time (CDT) Temp. Windchill Dew Point Humidity Pressure Visibility Wind Dir Wind Speed Gust Speed Precip Events Conditions
12:15 AM 43.9 °F 39.9 °F 43.9 °F 100% 29.89 in 1.2 mi East 6.9 mph - N/A   Overcast
12:35 AM 44.6 °F 41.4 °F 44.6 °F 100% 29.88 in 1.5 mi East 5.8 mph - N/A   Overcast
12:55 AM 44.6 °F 41.4 °F 44.6 °F 100% 29.87 in 1.0 mi East 5.8 mph - N/A   Overcast
1:15 AM 44.8 °F 42.4 °F 44.8 °F 100% 29.86 in 0.8 mi East 4.6 mph - N/A   Overcast
1:35 AM 45.0 °F 41.2 °F 45.0 °F 100% 29.83 in 0.8 mi East 6.9 mph - N/A   Overcast
1:55 AM 45.5 °F 42.5 °F 45.5 °F 100% 29.86 in 1.0 mi East 5.8 mph - N/A   Overcast
2:15 AM 45.5 °F 41.8 °F 45.5 °F 100% 29.84 in 1.0 mi ENE 6.9 mph - N/A   Overcast
2:35 AM 45.9 °F 41.7 °F 45.9 °F 100% 29.83 in 1.0 mi East 8.1 mph - N/A   Overcast
2:55 AM 46.4 °F 42.9 °F 46.4 °F 100% 29.82 in 1.0 mi East 6.9 mph - N/A   Overcast
3:15 AM 46.6 °F - 46.6 °F 100% 29.80 in 1.0 mi East 8.1 mph - N/A   Overcast
3:35 AM 46.9 °F - 46.9 °F 100% 29.79 in 3.0 mi East 6.9 mph - N/A   Overcast
3:55 AM 47.5 °F - 47.5 °F 100% 29.78 in 3.0 mi East 8.1 mph - N/A   Overcast
4:15 AM 47.8 °F - 47.8 °F 100% 29.77 in 3.0 mi East 9.2 mph - N/A   Overcast
4:35 AM 48.2 °F - 48.2 °F 100% 29.75 in 4.0 mi East 8.1 mph - N/A   Overcast
4:55 AM 48.4 °F - 48.4 °F 100% 29.73 in 5.0 mi East 10.4 mph - N/A   Overcast
5:15 AM 49.3 °F - 49.3 °F 100% 29.73 in 7.0 mi East 9.2 mph 23.0 mph N/A   Mostly Cloudy
5:35 AM 49.3 °F - 49.3 °F 100% 29.71 in 7.0 mi East 10.4 mph - N/A   Mostly Cloudy
5:55 AM 50.4 °F - 49.8 °F 98% 29.69 in 10.0 mi ESE 6.9 mph - N/A   Mostly Cloudy
6:15 AM 51.1 °F - 50.0 °F 96% 29.68 in 10.0 mi ESE 9.2 mph - N/A   Overcast
6:35 AM 52.0 °F - 50.0 °F 93% 29.65 in 10.0 mi ESE 11.5 mph 19.6 mph N/A   Overcast
6:55 AM 52.0 °F - 49.8 °F 92% 29.64 in 10.0 mi ESE 12.7 mph 17.3 mph N/A   Overcast
7:15 AM 52.3 °F - 49.6 °F 91% 29.63 in 10.0 mi ESE 10.4 mph 16.1 mph N/A   Overcast
7:35 AM 52.7 °F - 49.6 °F 89% 29.62 in 10.0 mi ESE 10.4 mph 16.1 mph N/A   Overcast
7:55 AM 52.9 °F - 49.5 °F 88% 29.60 in 10.0 mi ESE 9.2 mph 18.4 mph N/A   Overcast
8:15 AM 53.1 °F - 49.5 °F 88% 29.57 in 10.0 mi ESE 12.7 mph 18.4 mph N/A   Mostly Cloudy
8:35 AM 53.6 °F - 49.5 °F 86% 29.56 in 10.0 mi ESE 11.5 mph 18.4 mph N/A   Scattered Clouds
8:55 AM 53.8 °F - 49.8 °F 86% 29.54 in 10.0 mi ESE 11.5 mph 21.9 mph N/A   Scattered Clouds
9:15 AM 54.0 °F - 50.2 °F 87% 29.50 in 10.0 mi ESE 15.0 mph 18.4 mph N/A   Scattered Clouds
9:35 AM 53.1 °F - 51.6 °F 95% 29.47 in 10.0 mi ESE 17.3 mph 25.3 mph N/A   Light Drizzle
9:55 AM 54.1 °F - 52.5 °F 94% 29.47 in 10.0 mi ESE 16.1 mph 26.5 mph N/A   Overcast
10:15 AM 54.3 °F - 52.7 °F 94% 29.44 in 10.0 mi ESE 15.0 mph 25.3 mph N/A Rain Light Rain
10:35 AM 54.1 °F - 52.9 °F 95% 29.42 in 10.0 mi ESE 17.3 mph 27.6 mph 0.01 in   Overcast
10:55 AM 54.7 °F - 53.2 °F 95% 29.41 in 10.0 mi SE 20.7 mph 35.7 mph 0.01 in   Overcast
11:15 AM 55.0 °F - 53.4 °F 94% 29.41 in 10.0 mi SE 17.3 mph 25.3 mph N/A   Overcast
11:35 AM 54.9 °F - 53.6 °F 96% 29.41 in 4.0 mi SSE 15.0 mph 27.6 mph N/A Rain Light Rain
11:55 AM 54.5 °F - 54.5 °F 100% 29.40 in 3.0 mi SSE 10.4 mph - 0.03 in Rain Rain
12:35 PM 56.3 °F - 56.3 °F 100% 29.37 in 4.0 mi SSE 9.2 mph - 0.02 in Rain Light Rain
12:55 PM 57.4 °F - 57.4 °F 100% 29.37 in 3.0 mi SSE 11.5 mph 19.6 mph 0.05 in Rain Heavy Rain
1:15 PM 57.7 °F - 57.4 °F 99% 29.37 in 4.0 mi South 12.7 mph 31.1 mph 0.02 in   Heavy Drizzle
1:35 PM 57.2 °F - 56.8 °F 99% 29.37 in 1.5 mi SSW 19.6 mph 27.6 mph 0.22 in Rain Heavy Rain
1:55 PM 57.4 °F - 56.7 °F 97% 29.37 in 5.0 mi South 15.0 mph 26.5 mph 0.27 in Rain Rain
2:15 PM 59.4 °F - 59.2 °F 99% 29.36 in 10.0 mi South 6.9 mph 18.4 mph N/A   Scattered Clouds
2:35 PM 61.5 °F - 59.4 °F 93% 29.36 in 10.0 mi South 13.8 mph 23.0 mph N/A   Clear
2:55 PM 62.4 °F - 58.1 °F 86% 29.35 in 10.0 mi SSW 18.4 mph 24.2 mph N/A   Scattered Clouds
3:15 PM 63.0 °F - 57.2 °F 81% 29.36 in 10.0 mi South 16.1 mph 24.2 mph N/A   Clear
3:35 PM 62.8 °F - 51.8 °F 67% 29.37 in 10.0 mi SSW 24.2 mph 33.4 mph N/A   Scattered Clouds
3:55 PM 63.1 °F - 48.6 °F 59% 29.37 in 10.0 mi SSW 18.4 mph 31.1 mph N/A   Clear
4:15 PM 62.6 °F - 48.6 °F 60% 29.37 in 10.0 mi SSW 17.3 mph 38.0 mph N/A   Clear
4:35 PM 61.9 °F - 48.2 °F 61% 29.37 in 10.0 mi South 19.6 mph 28.8 mph N/A   Scattered Clouds
4:55 PM 61.2 °F - 45.9 °F 57% 29.39 in 10.0 mi SSW 27.6 mph 36.8 mph N/A   Scattered Clouds
5:15 PM 59.2 °F - 42.6 °F 54% 29.41 in 10.0 mi SSW 18.4 mph 29.9 mph N/A   Clear
5:35 PM 58.1 °F - 41.5 °F 54% 29.42 in 10.0 mi SSW 20.7 mph 34.5 mph N/A   Clear
5:55 PM 56.5 °F - 42.1 °F 59% 29.44 in 10.0 mi SSW 12.7 mph 24.2 mph N/A   Scattered Clouds
6:15 PM 55.2 °F - 40.5 °F 58% 29.44 in 10.0 mi SSW 18.4 mph 28.8 mph N/A   Scattered Clouds
6:35 PM 54.0 °F - 40.5 °F 60% 29.45 in 10.0 mi SSW 15.0 mph 21.9 mph N/A   Scattered Clouds
6:55 PM 54.0 °F - 41.2 °F 62% 29.46 in 10.0 mi SW 19.6 mph 28.8 mph N/A   Mostly Cloudy
7:15 PM 54.0 °F - 41.9 °F 64% 29.47 in 10.0 mi SSW 19.6 mph 26.5 mph N/A   Mostly Cloudy
7:35 PM 51.8 °F - 39.7 °F 63% 29.48 in 10.0 mi SSW 25.3 mph 36.8 mph N/A   Scattered Clouds
7:55 PM 50.9 °F - 37.8 °F 61% 29.49 in 10.0 mi SW 31.1 mph 44.9 mph N/A   Clear
8:15 PM 50.9 °F - 38.3 °F 62% 29.49 in 10.0 mi SW 18.4 mph 28.8 mph N/A   Mostly Cloudy
8:35 PM 50.5 °F - 38.8 °F 64% 29.49 in 10.0 mi SSW 13.8 mph 27.6 mph N/A   Overcast
8:55 PM 50.2 °F - 39.2 °F 66% 29.48 in 10.0 mi SW 20.7 mph 26.5 mph N/A   Overcast
9:15 PM 50.0 °F - 39.6 °F 67% 29.48 in 10.0 mi SSW 16.1 mph 23.0 mph N/A   Overcast
9:35 PM 50.0 °F - 39.6 °F 67% 29.48 in 10.0 mi SSW 13.8 mph 24.2 mph N/A   Overcast
9:55 PM 50.0 °F - 39.7 °F 68% 29.48 in 10.0 mi SSW 17.3 mph 24.2 mph N/A   Overcast
10:15 PM 50.0 °F - 39.7 °F 68% 29.47 in 10.0 mi SSW 12.7 mph 21.9 mph N/A   Overcast
10:35 PM 49.1 °F - 39.9 °F 71% 29.47 in 10.0 mi SSW 13.8 mph 20.7 mph N/A   Overcast
10:55 PM 48.4 °F - 39.6 °F 72% 29.47 in 10.0 mi SSW 12.7 mph 21.9 mph N/A   Scattered Clouds
11:15 PM 48.7 °F - 39.9 °F 72% 29.46 in 10.0 mi SSW 16.1 mph 25.3 mph N/A   Scattered Clouds
11:35 PM 49.3 °F - 40.1 °F 71% 29.45 in 10.0 mi SSW 18.4 mph 26.5 mph N/A   Mostly Cloudy
11:55 PM 48.7 °F - 40.1 °F 72% 29.44 in 10.0 mi South 15.0 mph 23.0 mph N/A   Scattered Clouds